User: anonymous   Login
Location: Unspecified
(0.0000°N, 0.0000°E)
Time: 17:23:49
(UTC+02:00)
Language:

Cosmos 1703 Rocket - Orbit

View from above orbital plane
View from above orbital plane
View from above satellite
View from above satellite

Ground track
Ground track

The orbit data is extracted from the following two-line orbital elements,

1 16263U 85108B   15188.18210515  .00000245  00000-0  27322-4 0  9997
2 16263 082.5035 061.2462 0020509 165.3658 311.9532 14.82783107599013
Epoch (UTC): 07 July 2015 04:22:13
Eccentricity: 0.0020509
inclination: 82.5035°
perigee height: 606 km
apogee height: 635 km
right ascension of ascending node: 61.2462°
argument of perigee: 165.3658°
revolutions per day: 14.82783107
mean anomaly at epoch: 311.9532°
orbit number at epoch: 59901

The dashed part of the orbit path shows where the satellite is in the earth's shadow,  

DLR